Location: Niagara
(43.2500°N, 79.0670°W)
Time: 19:35:52
(UTC-04:00)

Vanguard 3 - All Passes

Search period start: 21 June 2018 00:00
Search period end: 01 July 2018 00:00
Orbit: 508 x 3264 km, 33.3° (Epoch: 21 June)

Date Brightness Start Highest point End Pass type
(mag) Time Alt. Az. Time Alt. Az. Time Alt. Az.
21 Jun - 03:35:30 10° SSW 03:39:30 21° SSE 03:45:10 10° ESE visible
21 Jun - 05:44:13 10° WSW 05:50:32 44° S 06:01:23 10° ESE daylight
21 Jun - 07:54:43 10° WSW 08:03:12 43° S 08:17:16 10° SE daylight
21 Jun - 10:07:10 10° WSW 10:16:55 27° SSW 10:30:23 10° SSE daylight
22 Jun - 04:31:47 10° SW 04:36:48 34° SSE 04:44:54 10° ESE visible
22 Jun - 06:41:35 10° WSW 06:48:37 44° S 07:00:44 10° ESE daylight
22 Jun - 08:52:52 10° WSW 09:01:46 33° SSW 09:15:22 10° SE daylight
22 Jun - 11:08:08 10° WSW 11:15:33 16° SW 11:24:28 10° S daylight
23 Jun - 03:19:52 10° SSW 03:23:33 21° SSE 03:28:40 10° ESE visible
23 Jun - 05:28:47 10° WSW 05:34:32 41° S 05:44:15 10° ESE daylight
23 Jun - 07:39:18 10° WSW 07:46:57 38° SSW 07:59:31 10° SE daylight
23 Jun - 09:52:01 10° WSW 10:00:23 22° SSW 10:11:44 10° SSE daylight
24 Jun - 02:10:23 10° SSE 02:10:36 10° SE 02:10:49 10° SE visible
24 Jun - 04:16:18 10° SW 04:20:54 33° SSE 04:28:06 10° ESE visible
24 Jun - 06:26:11 10° WSW 06:32:34 40° S 06:43:20 10° ESE daylight
24 Jun - 08:37:35 10° WSW 08:45:26 28° SSW 08:57:11 10° SSE daylight
24 Jun - 10:54:49 10° SW 10:59:00 12° SW 11:03:40 10° SSW daylight
25 Jun - 03:04:15 10° SSW 03:07:41 21° SSE 03:12:16 10° ESE visible
25 Jun - 05:13:24 10° WSW 05:18:37 38° S 05:27:13 10° ESE daylight
25 Jun - 07:23:58 10° WSW 07:30:49 32° SSW 07:41:46 10° SE daylight
25 Jun - 09:37:17 10° WSW 09:44:00 18° SSW 09:52:42 10° S daylight
26 Jun - 01:53:40 10° SSE 01:54:40 11° SSE 01:55:44 10° SE visible
26 Jun - 04:00:53 10° SW 04:05:05 31° SSE 04:11:26 10° ESE visible
26 Jun - 06:10:52 10° WSW 06:16:36 35° S 06:25:58 10° SE daylight
26 Jun - 08:22:31 10° WSW 08:29:13 23° SSW 08:38:51 10° SSE daylight
27 Jun - 02:48:41 10° SSW 02:51:52 21° SSE 02:55:59 10° ESE visible
27 Jun - 04:58:03 10° WSW 05:02:47 34° S 05:10:16 10° ESE visible
27 Jun - 07:08:48 10° WSW 07:14:47 27° SSW 07:23:57 10° SE daylight
27 Jun - 09:23:26 10° SW 09:27:43 13° SSW 09:32:49 10° S daylight
28 Jun - 01:37:26 10° S 01:38:48 12° SSE 01:40:17 10° SE visible
28 Jun - 03:45:28 10° SW 03:49:19 29° S 03:54:51 10° ESE visible
28 Jun - 05:55:37 10° WSW 06:00:43 29° S 06:08:39 10° SE daylight
28 Jun - 08:07:48 10° WSW 08:13:07 17° SSW 08:20:14 10° SSE daylight
29 Jun - 02:33:07 10° SW 02:36:06 21° SSE 02:39:49 10° ESE visible
29 Jun - 04:42:46 10° WSW 04:47:00 29° S 04:53:23 10° SE visible
29 Jun - 06:53:48 10° WSW 06:58:50 21° SSW 07:06:03 10° SSE daylight
30 Jun - 01:21:18 10° S 01:23:00 13° SSE 01:24:47 10° SE night (unlit)
30 Jun - 03:30:06 10° SW 03:33:35 26° S 03:38:23 10° ESE visible
30 Jun - 05:40:30 10° WSW 05:44:54 24° S 05:51:20 10° SE daylight
30 Jun - 07:53:55 10° SW 07:57:07 12° SSW 08:00:56 10° S daylight
